User: anonymous   Login
Location: Vancouver
(49.2500°N, 123.1330°W)
Time: 20:28:58
(UTC-08:00)
Language:

Iridium 21 - Orbit

View from above orbital plane
View from above orbital plane
View from above satellite
View from above satellite

Ground track
Ground track

The orbit data is extracted from the following two-line orbital elements,

1 25778U 99032B   16339.46432502  .00000096  00000-0  27354-4 0  9990
2 25778  86.3943 305.3639 0002238  84.3697 275.7754 14.34215528920200
Epoch (UTC): 04 December 2016 11:08:37
Eccentricity: 0.0002238
inclination: 86.3943°
perigee height: 776 km
apogee height: 779 km
right ascension of ascending node: 305.3639°
argument of perigee: 84.3697°
revolutions per day: 14.34215528
mean anomaly at epoch: 275.7754°
orbit number at epoch: 92020

The dashed part of the orbit path shows where the satellite is in the earth's shadow,  

DLR